Starlink 31946

operational
NORAD ID: 59940 Int'l Des: 2024-106 Owner: SPXS Country: US Constellation: starlink
LEOCIRCULAR

About Starlink 31946

Description loading...

Live Position

Loading 3D Globe...

Upcoming Passes

Altitude History

Altitude vs Time

uPlot chart will show altitude changes over time

Two-Line Element Set

1 59940U 24106U 25302.49402884 .00000677 00000-0 34122-4 0 9997
2 59940 43.0017 353.8300 0000680 262.9914 97.0860 15.27580372 71089
Epoch: Oct 29, 2025 • Age: 33 hours

Current Status

Altitude 486.3 km
Velocity 7.63 km/s
Sub-Earth Point 41.73°N, 61.39°E
Launch Date Jun 1, 2024
Age 1.4 years
Type internet

Technical Details

Classification Payload
Mass 730.00 kg
Dry Mass 700.00 kg
Total Mass 730.00 kg
Length 0.30 m
Diameter 4.10 m
Span 29.00 m
Shape Box + pan
Manufacturer SPXS
Bus Type Starlink V2M
Phase Status In Orbit
Owner/State SPXS/US

Large Constellations

Loading constellations...